START_TIME,STEP,MOV.,H8,t_acc.,H43,t_acc.,M25,t_acc.,H9,t_acc.
1980-11-13 15:00:18.050 ,5,0,0.,12.0,0.,12.0,0.,12.0,0.,12.0
1980-11-13 15:00:30.050 ,5,0,0.,12.0,0.,12.0,0.,12.0,0.,12.0
1980-11-13 15:00:42.050 ,6,0,0.,12.0,0.,12.0,0.,12.0,0.,12.0
1980-11-13 15:00:54.050 ,6,0,0.,12.0,0.,12.0,0.,12.0,0.,12.0
1980-11-13 15:01:06.050 ,6,0,0.,12.0,0.,12.0,0.,12.0,0.,12.0
1980-11-13 15:01:18.050 ,6,0,0.,12.0,0.,12.0,0.,12.0,0.,12.0
1980-11-13 15:01:30.050 ,7,0,0.,12.0,0.,12.0,0.,12.0,0.,12.0
1980-11-13 15:01:42.050 ,7,0,0.,12.0,0.,12.0,0.,12.0,0.,12.0
1980-11-13 15:01:54.050 ,7,0,0.,12.0,0.,12.0,0.,12.0,0.,12.0
1980-11-13 15:02:06.050 ,7,0,0.,12.0,0.,12.0,0.,12.0,0.,12.0
1980-11-13 15:02:18.050 ,7,0,0.,12.0,0.,12.0,0.,12.0,0.,12.0
1980-11-13 15:02:30.050 ,7,0,0.,12.0,0.,12.0,0.,12.0,0.,12.0
1980-11-13 15:02:42.050 ,7,0,0.,12.0,0.,12.0,0.,12.0,0.,12.0
1980-11-13 15:02:54.050 ,7,0,0.,12.0,0.,12.0,0.,12.0,0.,12.0
1980-11-13 15:03:06.050 ,6,0,0.,12.0,0.,12.0,0.,12.0,0.,12.0
1980-11-13 15:03:18.050 ,6,0,0.,12.0,0.,12.0,0.,12.0,0.,12.0
1980-11-13 15:03:30.050 ,6,0,0.,12.0,0.,12.0,0.,12.0,0.,12.0
1980-11-13 15:03:42.050 ,6,0,0.,12.0,0.,12.0,0.,12.0,0.,12.0
1980-11-13 15:03:54.050 ,5,0,0.,12.0,0.,12.0,0.,12.0,0.,12.0
1980-11-13 15:04:06.050 ,5,0,0.,12.0,0.,12.0,0.,12.0,0.,12.0
1980-11-13 15:04:18.050 ,5,0,0.,12.0,0.,12.0,0.,12.0,0.,12.0
1980-11-13 15:04:30.050 ,5,0,0.,12.0,0.,12.0,0.,12.0,0.,12.0
1980-11-13 15:04:42.050 ,4,0,0.,12.0,0.,12.0,0.,12.0,0.,12.0
1980-11-13 15:04:54.050 ,4,0,0.,12.0,0.,12.0,0.,12.0,0.,12.0
1980-11-13 15:05:06.050 ,4,0,0.,12.0,0.,12.0,0.,12.0,0.,12.0
1980-11-13 15:05:18.050 ,4,0,0.,12.0,0.,12.0,0.,12.0,0.,12.0
1980-11-13 15:05:30.050 ,3,0,0.,12.0,0.,12.0,0.,12.0,0.,12.0
1980-11-13 15:05:42.050 ,3,0,0.,12.0,0.,12.0,0.,12.0,0.,12.0
1980-11-13 15:05:54.050 ,3,0,0.,12.0,0.,12.0,0.,12.0,0.,12.0
1980-11-13 15:06:06.050 ,3,0,0.,12.0,0.,12.0,0.,12.0,0.,12.0
1980-11-13 15:06:18.050 ,2,0,0.,12.0,0.,12.0,0.,12.0,0.,12.0
1980-11-13 15:06:30.050 ,2,0,0.,12.0,0.,12.0,0.,12.0,0.,12.0
1980-11-13 15:06:42.050 ,2,0,0.,12.0,0.,12.0,0.,12.0,0.,12.0
1980-11-13 15:06:54.050 ,2,0,0.,12.0,0.,12.0,0.,12.0,0.,12.0
1980-11-13 15:07:06.050 ,1,0,0.,12.0,0.,12.0,0.,12.0,0.,12.0
1980-11-13 15:07:18.050 ,1,0,0.,12.0,0.,12.0,0.,12.0,0.,12.0
1980-11-13 15:07:30.050 ,1,0,0.,12.0,0.,12.0,0.,12.0,0.,12.0
1980-11-13 15:07:42.050 ,1,0,0.,12.0,0.,12.0,0.,12.0,0.,12.0
1980-11-13 15:07:54.050 ,0,0,0.,12.0,0.,12.0,0.,12.0,0.,12.0
1980-11-13 15:08:06.050 ,0,0,0.,12.0,0.,12.0,0.,12.0,0.,12.0
1980-11-13 15:08:18.050 ,0,0,0.,12.0,0.,12.0,0.,12.0,0.,12.0
1980-11-13 15:08:30.050 ,0,0,0.,12.0,0.,12.0,0.,12.0,0.,12.0
1980-11-13 15:08:42.050 ,0,0,0.,12.0,0.,12.0,0.,12.0,0.,12.0
1980-11-13 15:08:54.050 ,0,0,0.,12.0,0.,12.0,0.,12.0,0.,12.0
1980-11-13 15:09:06.050 ,0,0,0.,12.0,0.,12.0,0.,12.0,0.,12.0
1980-11-13 15:09:18.050 ,0,0,0.,12.0,0.,12.0,0.,12.0,0.,12.0
1980-11-13 15:09:30.050 ,1,0,0.,12.0,0.,12.0,0.,12.0,0.,12.0
1980-11-13 15:09:42.050 ,1,0,0.,12.0,0.,12.0,0.,12.0,0.,12.0
1980-11-13 15:09:54.050 ,1,0,0.,12.0,0.,12.0,0.,12.0,0.,12.0
1980-11-13 15:10:06.050 ,1,0,0.,12.0,0.,12.0,0.,12.0,0.,12.0
1980-11-13 15:10:18.050 ,2,0,0.,12.0,0.,12.0,0.,12.0,0.,12.0
1980-11-13 15:10:30.050 ,2,0,0.,12.0,0.,12.0,0.,12.0,0.,12.0
1980-11-13 15:10:42.050 ,2,0,0.,12.0,0.,12.0,0.,12.0,0.,12.0
1980-11-13 15:10:54.050 ,2,0,0.,12.0,0.,12.0,0.,12.0,0.,12.0
1980-11-13 15:11:06.050 ,3,0,0.,12.0,0.,12.0,0.,12.0,0.,12.0
1980-11-13 15:11:18.050 ,3,0,0.,12.0,0.,12.0,0.,12.0,0.,12.0
1980-11-13 15:11:30.050 ,3,0,0.,12.0,0.,12.0,0.,12.0,0.,12.0
1980-11-13 15:11:42.050 ,3,0,0.,12.0,0.,12.0,0.,12.0,0.,12.0
1980-11-13 15:11:54.050 ,4,0,0.,12.0,0.,12.0,0.,12.0,0.,12.0
1980-11-13 15:12:06.050 ,4,0,0.,12.0,0.,12.0,0.,12.0,0.,12.0
1980-11-13 15:12:18.050 ,4,0,0.,12.0,0.,12.0,0.,12.0,0.,12.0
1980-11-13 15:12:30.050 ,4,0,0.,12.0,0.,12.0,0.,12.0,0.,12.0
1980-11-13 15:12:42.050 ,5,0,0.,12.0,0.,12.0,0.,12.0,0.,12.0
1980-11-13 15:12:54.050 ,5,0,0.,12.0,0.,12.0,0.,12.0,0.,12.0
1980-11-13 15:13:06.050 ,5,0,0.,12.0,0.,12.0,0.,12.0,0.,12.0
1980-11-13 15:13:18.050 ,5,0,0.,12.0,0.,12.0,0.,12.0,0.,12.0
1980-11-13 15:13:30.050 ,6,0,0.,12.0,0.,12.0,0.,12.0,0.,12.0
1980-11-13 15:13:42.050 ,6,0,0.,12.0,0.,12.0,0.,12.0,0.,12.0
1980-11-13 15:13:54.050 ,6,0,0.,12.0,0.,12.0,0.,12.0,0.,12.0
1980-11-13 15:14:06.050 ,6,0,0.,12.0,0.,12.0,0.,12.0,0.,12.0
1980-11-13 15:14:18.050 ,7,0,0.,12.0,0.,12.0,0.,12.0,0.,12.0
1980-11-13 15:14:30.050 ,7,0,0.,12.0,0.,12.0,0.,12.0,0.,12.0
1980-11-13 15:14:42.050 ,7,0,0.,12.0,0.,12.0,0.,12.0,0.,12.0
1980-11-13 15:14:54.050 ,7,0,0.,12.0,0.,12.0,0.,12.0,0.,12.0
1980-11-13 15:15:06.050 ,7,0,0.,12.0,0.,12.0,0.,12.0,0.,12.0
1980-11-13 15:15:18.050 ,7,0,0.,12.0,0.,12.0,0.,12.0,0.,12.0
1980-11-13 15:15:30.050 ,7,0,0.,12.0,0.,12.0,0.,12.0,0.,12.0
1980-11-13 15:15:42.050 ,7,0,0.,12.0,0.,12.0,0.,12.0,0.,12.0
1980-11-13 15:15:54.050 ,6,0,0.,12.0,0.,12.0,0.,12.0,0.,12.0
1980-11-13 15:16:06.050 ,6,0,0.,12.0,0.,12.0,0.,12.0,0.,12.0
1980-11-13 15:16:18.050 ,6,0,0.,12.0,0.,12.0,0.,12.0,0.,12.0
1980-11-13 15:16:30.050 ,6,0,0.,12.0,0.,12.0,0.,12.0,0.,12.0
1980-11-13 15:16:42.050 ,5,0,0.,12.0,1.,12.0,0.,12.0,0.,12.0
1980-11-13 15:16:54.050 ,5,0,0.,12.0,0.,12.0,0.,12.0,0.,12.0
1980-11-13 15:17:06.060 ,5,0,0.,12.0,0.,12.0,0.,12.0,0.,12.0
1980-11-13 15:17:18.060 ,5,0,0.,12.0,0.,12.0,0.,12.0,0.,12.0
1980-11-13 15:17:30.060 ,4,0,0.,12.0,0.,12.0,0.,12.0,0.,12.0
1980-11-13 15:17:42.060 ,4,0,0.,12.0,0.,12.0,0.,12.0,0.,12.0
1980-11-13 15:17:54.060 ,4,0,0.,12.0,0.,12.0,0.,12.0,0.,12.0
1980-11-13 15:18:06.060 ,4,0,0.,12.0,0.,12.0,0.,12.0,0.,12.0
1980-11-13 15:18:18.060 ,3,0,0.,12.0,0.,12.0,0.,12.0,0.,12.0
1980-11-13 15:18:30.060 ,3,0,0.,12.0,0.,12.0,0.,12.0,0.,12.0
1980-11-13 15:18:42.060 ,3,0,0.,12.0,0.,12.0,0.,12.0,0.,12.0
1980-11-13 15:18:54.060 ,3,0,0.,12.0,0.,12.0,0.,12.0,0.,12.0
1980-11-13 15:19:06.060 ,2,0,0.,12.0,0.,12.0,0.,12.0,0.,12.0
1980-11-13 15:19:18.060 ,2,0,0.,12.0,0.,12.0,0.,12.0,0.,12.0
1980-11-13 15:19:30.060 ,2,0,0.,12.0,0.,12.0,0.,12.0,0.,12.0
1980-11-13 15:19:42.060 ,2,0,0.,12.0,0.,12.0,0.,12.0,0.,12.0
1980-11-13 15:19:54.060 ,1,0,0.,12.0,0.,12.0,0.,12.0,0.,12.0
1980-11-13 15:20:06.060 ,1,0,0.,12.0,0.,12.0,0.,12.0,0.,12.0
1980-11-13 15:20:18.060 ,1,0,0.,12.0,0.,12.0,0.,12.0,0.,12.0
1980-11-13 15:20:30.060 ,1,0,0.,12.0,0.,12.0,0.,12.0,0.,12.0
1980-11-13 15:20:42.060 ,0,0,0.,12.0,0.,12.0,0.,12.0,0.,12.0
1980-11-13 15:20:54.060 ,0,0,0.,12.0,0.,12.0,0.,12.0,0.,12.0
1980-11-13 15:21:06.060 ,0,0,0.,12.0,0.,12.0,0.,12.0,0.,12.0
1980-11-13 15:21:18.060 ,0,0,0.,12.0,0.,12.0,0.,12.0,0.,12.0
1980-11-13 15:21:30.060 ,0,0,0.,12.0,0.,12.0,0.,12.0,0.,12.0
1980-11-13 15:21:42.060 ,0,0,0.,12.0,0.,12.0,0.,12.0,0.,12.0
1980-11-13 15:21:54.060 ,0,0,0.,12.0,0.,12.0,0.,12.0,0.,12.0
1980-11-13 15:22:06.060 ,0,0,0.,12.0,0.,12.0,0.,12.0,0.,12.0
1980-11-13 15:22:18.060 ,1,0,0.,12.0,0.,12.0,0.,12.0,0.,12.0
1980-11-13 15:22:30.060 ,1,0,0.,12.0,0.,12.0,0.,12.0,0.,12.0
1980-11-13 15:22:42.060 ,1,0,0.,12.0,0.,12.0,0.,12.0,0.,12.0
1980-11-13 15:22:54.060 ,1,0,0.,12.0,0.,12.0,0.,12.0,0.,12.0
1980-11-13 15:23:06.060 ,2,0,0.,12.0,0.,12.0,0.,12.0,0.,12.0
1980-11-13 15:23:18.060 ,2,0,0.,12.0,0.,12.0,0.,12.0,0.,12.0
1980-11-13 15:23:30.060 ,2,0,0.,12.0,0.,12.0,0.,12.0,0.,12.0
1980-11-13 15:23:42.060 ,2,0,0.,12.0,0.,12.0,0.,12.0,0.,12.0
1980-11-13 15:23:54.060 ,3,0,0.,12.0,0.,12.0,0.,12.0,0.,12.0
1980-11-13 15:24:06.060 ,3,0,0.,12.0,0.,12.0,0.,12.0,0.,12.0
1980-11-13 15:24:18.060 ,3,0,0.,12.0,0.,12.0,0.,12.0,0.,12.0
1980-11-13 15:24:30.060 ,3,0,0.,12.0,0.,12.0,0.,12.0,0.,12.0
1980-11-13 15:24:42.060 ,4,0,0.,12.0,0.,12.0,0.,12.0,0.,12.0
1980-11-13 15:24:54.060 ,4,0,0.,12.0,0.,12.0,0.,12.0,0.,12.0
1980-11-13 15:25:06.060 ,4,0,0.,12.0,0.,12.0,0.,12.0,0.,12.0
1980-11-13 15:25:18.060 ,4,0,0.,12.0,0.,12.0,0.,12.0,0.,12.0
1980-11-13 15:25:30.060 ,5,0,0.,12.0,0.,12.0,0.,12.0,0.,12.0
1980-11-13 15:25:42.060 ,5,0,0.,12.0,0.,12.0,0.,12.0,0.,12.0
1980-11-13 15:25:54.060 ,5,0,0.,12.0,0.,12.0,0.,12.0,0.,12.0
1980-11-13 15:26:06.060 ,5,0,0.,12.0,0.,12.0,0.,12.0,0.,12.0
1980-11-13 15:26:18.060 ,6,0,0.,12.0,0.,12.0,0.,12.0,0.,12.0
1980-11-13 15:26:30.060 ,6,0,0.,12.0,0.,12.0,0.,12.0,0.,12.0
1980-11-13 15:26:42.060 ,6,0,0.,12.0,0.,12.0,0.,12.0,0.,12.0
1980-11-13 15:26:54.060 ,6,0,0.,12.0,0.,12.0,0.,12.0,0.,12.0
1980-11-13 15:27:06.060 ,7,0,0.,12.0,0.,12.0,0.,12.0,0.,12.0
1980-11-13 15:27:18.060 ,7,0,0.,12.0,0.,12.0,0.,12.0,0.,12.0
1980-11-13 15:27:30.060 ,7,0,0.,12.0,0.,12.0,0.,12.0,0.,12.0
1980-11-13 15:27:42.060 ,7,0,0.,12.0,0.,12.0,0.,12.0,0.,12.0
1980-11-13 15:27:54.060 ,7,0,0.,12.0,0.,12.0,0.,12.0,0.,12.0
1980-11-13 15:28:06.060 ,7,0,0.,12.0,0.,12.0,0.,12.0,0.,12.0
1980-11-13 15:28:18.060 ,7,0,0.,12.0,0.,12.0,0.,12.0,0.,12.0
1980-11-13 15:28:30.060 ,7,0,0.,12.0,0.,12.0,0.,12.0,0.,12.0
1980-11-13 15:28:42.060 ,6,0,0.,12.0,0.,12.0,0.,12.0,0.,12.0
1980-11-13 15:28:54.060 ,6,0,0.,12.0,0.,12.0,0.,12.0,0.,12.0
1980-11-13 15:29:06.060 ,6,0,,0,,0,,0,,0
1980-11-13 15:29:18.060 ,6,0,0.,12.0,0.,12.0,0.,12.0,0.,12.0
1980-11-13 15:29:30.060 ,5,0,0.,12.0,0.,12.0,0.,12.0,0.,12.0
1980-11-13 15:29:42.060 ,5,0,0.,12.0,0.,12.0,0.,12.0,0.,12.0
1980-11-13 15:29:54.060 ,5,0,0.,12.0,0.,12.0,0.,12.0,0.,12.0
1980-11-13 15:30:06.060 ,5,0,0.,12.0,0.,12.0,0.,12.0,0.,12.0
1980-11-13 15:30:18.060 ,4,0,0.,12.0,0.,12.0,0.,12.0,0.,12.0
1980-11-13 15:30:30.060 ,4,0,0.,12.0,0.,12.0,0.,12.0,0.,12.0
1980-11-13 15:30:42.060 ,4,0,0.,12.0,0.,12.0,0.,12.0,0.,12.0
1980-11-13 15:30:54.060 ,4,0,0.,12.0,0.,12.0,0.,12.0,0.,12.0
1980-11-13 15:31:06.060 ,3,0,0.,12.0,0.,12.0,0.,12.0,0.,12.0
1980-11-13 15:31:18.060 ,3,0,0.,12.0,0.,12.0,0.,12.0,0.,12.0
1980-11-13 15:31:30.060 ,3,0,0.,12.0,0.,12.0,0.,12.0,0.,12.0
1980-11-13 15:31:42.060 ,3,0,0.,12.0,0.,12.0,0.,12.0,0.,12.0
1980-11-13 15:31:54.060 ,2,0,0.,12.0,0.,12.0,0.,12.0,0.,12.0
1980-11-13 15:32:06.060 ,2,0,0.,12.0,0.,12.0,0.,12.0,0.,12.0
1980-11-13 15:32:18.060 ,2,0,0.,12.0,0.,12.0,0.,12.0,0.,12.0
1980-11-13 15:32:30.060 ,2,0,0.,12.0,0.,12.0,0.,12.0,0.,12.0
1980-11-13 15:32:42.060 ,1,0,0.,12.0,0.,12.0,0.,12.0,0.,12.0
1980-11-13 15:32:54.060 ,1,0,0.,12.0,0.,12.0,0.,12.0,0.,12.0
1980-11-13 15:33:06.060 ,1,0,0.,12.0,0.,12.0,0.,12.0,0.,12.0
1980-11-13 15:33:18.060 ,1,0,0.,12.0,0.,12.0,0.,12.0,0.,12.0
1980-11-13 15:33:30.060 ,0,0,0.,12.0,0.,12.0,0.,12.0,0.,12.0
1980-11-13 15:33:42.060 ,0,0,0.,12.0,0.,12.0,0.,12.0,0.,12.0
1980-11-13 15:33:54.060 ,0,0,0.,12.0,0.,12.0,0.,12.0,0.,12.0
1980-11-13 15:34:06.060 ,0,0,0.,12.0,0.,12.0,0.,12.0,0.,12.0
1980-11-13 15:34:18.050 ,0,0,0.,12.0,0.,12.0,0.,12.0,0.,12.0
1980-11-13 15:34:30.050 ,0,0,0.,12.0,0.,12.0,0.,12.0,0.,12.0
1980-11-13 15:34:42.050 ,0,0,0.,12.0,0.,12.0,0.,12.0,0.,12.0
1980-11-13 15:34:54.050 ,0,0,0.,12.0,0.,12.0,0.,12.0,0.,12.0
1980-11-13 15:35:06.050 ,1,0,0.,12.0,0.,12.0,0.,12.0,0.,12.0
1980-11-13 15:35:18.050 ,1,0,0.,12.0,0.,12.0,0.,12.0,0.,12.0
1980-11-13 15:35:30.050 ,1,0,0.,12.0,0.,12.0,0.,12.0,0.,12.0
1980-11-13 15:35:42.050 ,1,0,0.,12.0,0.,12.0,0.,12.0,0.,12.0
1980-11-13 15:35:54.050 ,2,0,0.,12.0,0.,12.0,0.,12.0,0.,12.0
1980-11-13 15:36:06.050 ,2,0,0.,12.0,0.,12.0,0.,12.0,0.,12.0
1980-11-13 15:36:18.050 ,2,0,0.,12.0,0.,12.0,0.,12.0,0.,12.0
1980-11-13 15:36:30.050 ,2,0,0.,12.0,0.,12.0,0.,12.0,0.,12.0
1980-11-13 15:36:42.050 ,3,0,0.,12.0,0.,12.0,0.,12.0,0.,12.0
1980-11-13 15:36:54.050 ,3,0,0.,12.0,0.,12.0,0.,12.0,0.,12.0
1980-11-13 15:37:06.050 ,3,0,0.,12.0,0.,12.0,0.,12.0,0.,12.0
1980-11-13 15:37:18.050 ,3,0,0.,12.0,0.,12.0,0.,12.0,0.,12.0
1980-11-13 15:37:30.050 ,4,0,0.,12.0,0.,12.0,0.,12.0,0.,12.0
1980-11-13 15:37:42.050 ,4,0,0.,12.0,0.,12.0,0.,12.0,0.,12.0
1980-11-13 15:37:54.050 ,4,0,0.,12.0,0.,12.0,0.,12.0,0.,12.0
1980-11-13 15:38:06.050 ,4,0,0.,12.0,0.,12.0,0.,12.0,0.,12.0
1980-11-13 15:38:18.050 ,5,0,0.,12.0,0.,12.0,0.,12.0,0.,12.0
1980-11-13 15:38:30.050 ,5,0,0.,12.0,0.,12.0,0.,12.0,0.,12.0
1980-11-13 15:38:42.050 ,5,0,0.,12.0,0.,12.0,0.,12.0,0.,12.0
1980-11-13 15:38:54.050 ,5,0,0.,12.0,0.,12.0,0.,12.0,0.,12.0
1980-11-13 15:39:06.050 ,6,0,0.,12.0,0.,12.0,0.,12.0,0.,12.0
1980-11-13 15:39:18.050 ,6,0,0.,12.0,0.,12.0,0.,12.0,0.,12.0
1980-11-13 15:39:30.050 ,6,0,0.,12.0,0.,12.0,0.,12.0,0.,12.0
1980-11-13 15:39:42.050 ,6,0,0.,12.0,0.,12.0,0.,12.0,0.,12.0
1980-11-13 15:39:54.050 ,7,0,0.,12.0,0.,12.0,0.,12.0,0.,12.0
1980-11-13 15:40:06.050 ,7,0,0.,12.0,0.,12.0,0.,12.0,0.,12.0
1980-11-13 15:40:18.050 ,7,0,0.,12.0,0.,12.0,0.,12.0,0.,12.0
1980-11-13 15:40:30.050 ,7,0,0.,12.0,0.,12.0,0.,12.0,0.,12.0
1980-11-13 15:40:42.050 ,7,0,0.,12.0,0.,12.0,0.,12.0,0.,12.0
1980-11-13 15:40:54.050 ,7,0,0.,12.0,0.,12.0,0.,12.0,0.,12.0
1980-11-13 15:41:06.050 ,7,0,0.,12.0,0.,12.0,0.,12.0,0.,12.0
1980-11-13 15:41:18.050 ,7,0,0.,12.0,0.,12.0,0.,12.0,0.,12.0
1980-11-13 15:41:30.050 ,6,0,0.,12.0,0.,12.0,0.,12.0,0.,12.0
1980-11-13 15:41:42.050 ,6,0,0.,12.0,0.,12.0,0.,12.0,0.,12.0
1980-11-13 15:41:54.050 ,6,0,0.,12.0,0.,12.0,0.,12.0,0.,12.0
1980-11-13 15:42:06.050 ,6,0,0.,12.0,0.,12.0,0.,12.0,0.,12.0
1980-11-13 15:42:18.050 ,5,0,0.,12.0,0.,12.0,0.,12.0,0.,12.0
1980-11-13 15:42:30.050 ,5,0,0.,12.0,0.,12.0,0.,12.0,0.,12.0
1980-11-13 15:42:42.050 ,5,0,0.,12.0,0.,12.0,0.,12.0,0.,12.0
1980-11-13 15:42:54.050 ,5,0,0.,12.0,0.,12.0,0.,12.0,0.,12.0
1980-11-13 15:43:06.050 ,4,0,0.,12.0,0.,12.0,0.,12.0,0.,12.0
1980-11-13 15:43:18.050 ,4,0,0.,12.0,0.,12.0,0.,12.0,0.,12.0
1980-11-13 15:43:30.050 ,4,0,0.,12.0,0.,12.0,0.,12.0,0.,12.0
1980-11-13 15:43:42.050 ,4,0,0.,12.0,0.,12.0,0.,12.0,0.,12.0
1980-11-13 15:43:54.050 ,3,0,0.,12.0,0.,12.0,0.,12.0,0.,12.0
1980-11-13 15:44:06.050 ,3,0,0.,12.0,0.,12.0,0.,12.0,0.,12.0
1980-11-13 15:44:18.050 ,3,0,0.,12.0,0.,12.0,0.,12.0,0.,12.0
1980-11-13 15:44:30.050 ,3,0,0.,12.0,0.,12.0,0.,12.0,0.,12.0
1980-11-13 15:44:42.050 ,2,0,0.,12.0,0.,12.0,0.,12.0,0.,12.0
1980-11-13 15:44:54.050 ,2,0,0.,12.0,0.,12.0,0.,12.0,0.,12.0
1980-11-13 15:45:06.050 ,2,0,,0,,0,,0,,0
1980-11-13 15:45:18.050 ,2,0,0.,12.0,0.,12.0,0.,12.0,0.,12.0
1980-11-13 15:45:30.050 ,1,0,0.,12.0,0.,12.0,0.,12.0,0.,12.0
1980-11-13 15:45:42.050 ,1,0,0.,12.0,0.,12.0,0.,12.0,0.,12.0
1980-11-13 15:45:54.050 ,1,0,0.,12.0,0.,12.0,0.,12.0,0.,12.0
1980-11-13 15:46:06.050 ,1,0,0.,12.0,0.,12.0,0.,12.0,0.,12.0
1980-11-13 15:46:18.050 ,0,0,0.,12.0,0.,12.0,0.,12.0,0.,12.0
1980-11-13 15:46:30.050 ,0,0,0.,12.0,0.,12.0,0.,12.0,0.,12.0
1980-11-13 15:46:42.050 ,0,0,0.,12.0,0.,12.0,0.,12.0,0.,12.0
1980-11-13 15:46:54.050 ,0,0,0.,12.0,0.,12.0,0.,12.0,0.,12.0
1980-11-13 15:47:06.050 ,0,0,0.,12.0,0.,12.0,0.,12.0,0.,12.0
1980-11-13 15:47:18.050 ,0,0,0.,12.0,0.,12.0,0.,12.0,0.,12.0
1980-11-13 15:47:30.050 ,0,0,0.,12.0,0.,12.0,0.,12.0,0.,12.0
1980-11-13 15:47:42.050 ,0,0,0.,12.0,0.,12.0,0.,12.0,0.,12.0
1980-11-13 15:47:54.050 ,1,0,0.,12.0,0.,12.0,0.,12.0,0.,12.0
1980-11-13 15:48:06.050 ,1,0,0.,12.0,0.,12.0,0.,12.0,0.,12.0
1980-11-13 15:48:18.050 ,1,0,0.,12.0,0.,12.0,0.,12.0,0.,12.0
1980-11-13 15:48:30.050 ,1,0,0.,12.0,0.,12.0,0.,12.0,0.,12.0
1980-11-13 15:48:42.050 ,2,0,0.,12.0,0.,12.0,0.,12.0,0.,12.0
1980-11-13 15:48:54.050 ,2,0,0.,12.0,0.,12.0,0.,12.0,0.,12.0
1980-11-13 15:49:06.050 ,2,0,0.,12.0,0.,12.0,0.,12.0,0.,12.0
1980-11-13 15:49:18.050 ,2,0,0.,12.0,0.,12.0,0.,12.0,0.,12.0
1980-11-13 15:49:30.050 ,3,0,0.,12.0,0.,12.0,0.,12.0,0.,12.0
1980-11-13 15:49:42.050 ,3,0,0.,12.0,0.,12.0,0.,12.0,0.,12.0
1980-11-13 15:49:54.050 ,3,0,0.,12.0,0.,12.0,0.,12.0,0.,12.0
1980-11-13 15:50:06.050 ,3,0,0.,12.0,0.,12.0,0.,12.0,0.,12.0
1980-11-13 15:50:18.050 ,4,0,0.,12.0,0.,12.0,0.,12.0,0.,12.0
1980-11-13 15:50:30.050 ,4,0,0.,12.0,0.,12.0,0.,12.0,0.,12.0
1980-11-13 15:50:42.050 ,4,0,0.,12.0,0.,12.0,0.,12.0,0.,12.0
1980-11-13 15:50:54.050 ,4,0,0.,12.0,0.,12.0,0.,12.0,0.,12.0
1980-11-13 15:51:06.050 ,5,0,0.,12.0,0.,12.0,0.,12.0,0.,12.0
1980-11-13 15:51:18.050 ,5,0,0.,12.0,0.,12.0,0.,12.0,0.,12.0
1980-11-13 15:51:30.050 ,5,0,0.,12.0,0.,12.0,0.,12.0,0.,12.0
1980-11-13 15:51:42.050 ,5,0,0.,12.0,0.,12.0,0.,12.0,0.,12.0
1980-11-13 15:51:54.050 ,6,0,0.,12.0,0.,12.0,0.,12.0,0.,12.0
1980-11-13 15:52:06.050 ,6,0,0.,12.0,0.,12.0,0.,12.0,0.,12.0
1980-11-13 15:52:18.050 ,0,0,0.,12.0,0.,12.0,0.,12.0,0.,12.0
1980-11-13 15:52:30.050 ,0,0,0.,12.0,0.,12.0,0.,12.0,0.,12.0
1980-11-13 15:53:16.250 ,0,0,,0,,0,,0,,0
1980-11-13 15:53:28.250 ,0,0,0.,12.0,0.,12.0,0.,12.0,0.,12.0
1980-11-13 15:53:30.050 ,7,0,0.,12.0,0.,12.0,0.,12.0,0.,12.0
1980-11-13 15:53:42.050 ,7,0,0.,12.0,0.,12.0,0.,12.0,0.,12.0
1980-11-13 15:53:54.050 ,7,0,0.,12.0,0.,12.0,0.,12.0,0.,12.0
1980-11-13 15:54:06.050 ,7,0,0.,12.0,0.,12.0,0.,12.0,0.,12.0
1980-11-13 15:54:18.050 ,6,0,0.,12.0,0.,12.0,0.,12.0,0.,12.0
1980-11-13 15:54:30.050 ,6,0,0.,12.0,0.,12.0,0.,12.0,0.,12.0
1980-11-13 15:54:42.050 ,6,0,0.,12.0,0.,12.0,0.,12.0,0.,12.0
1980-11-13 15:54:54.050 ,6,0,0.,12.0,0.,12.0,0.,12.0,0.,12.0
1980-11-13 15:55:06.050 ,5,0,0.,12.0,0.,12.0,0.,12.0,0.,12.0
1980-11-13 15:55:18.050 ,5,0,0.,12.0,0.,12.0,0.,12.0,0.,12.0
1980-11-13 15:55:30.050 ,5,0,0.,12.0,0.,12.0,0.,12.0,0.,12.0
1980-11-13 15:55:42.050 ,5,0,0.,12.0,0.,12.0,0.,12.0,0.,12.0
1980-11-13 15:55:54.050 ,4,0,0.,12.0,0.,12.0,0.,12.0,0.,12.0
1980-11-13 15:56:06.050 ,4,0,0.,12.0,0.,12.0,0.,12.0,0.,12.0
1980-11-13 15:56:18.050 ,4,0,0.,12.0,0.,12.0,0.,12.0,0.,12.0
1980-11-13 15:56:30.050 ,4,0,0.,12.0,0.,12.0,0.,12.0,0.,12.0
1980-11-13 15:56:42.050 ,3,0,0.,12.0,0.,12.0,0.,12.0,0.,12.0
1980-11-13 15:56:54.050 ,3,0,0.,12.0,0.,12.0,0.,12.0,0.,12.0
1980-11-13 15:57:06.050 ,3,0,0.,12.0,0.,12.0,0.,12.0,0.,12.0
1980-11-13 15:57:18.050 ,3,0,0.,12.0,0.,12.0,0.,12.0,0.,12.0
1980-11-13 15:57:30.050 ,2,0,0.,12.0,0.,12.0,0.,12.0,0.,12.0
1980-11-13 15:57:42.050 ,2,0,0.,12.0,0.,12.0,0.,12.0,0.,12.0
1980-11-13 15:57:54.050 ,2,0,0.,12.0,0.,12.0,0.,12.0,0.,12.0
1980-11-13 15:58:06.050 ,2,0,0.,12.0,0.,12.0,0.,12.0,0.,12.0
1980-11-13 15:58:18.050 ,1,0,0.,12.0,0.,12.0,0.,12.0,0.,12.0
1980-11-13 15:58:30.050 ,1,0,0.,12.0,0.,12.0,0.,12.0,0.,12.0
1980-11-13 15:58:42.050 ,1,0,0.,12.0,0.,12.0,0.,12.0,0.,12.0
1980-11-13 15:58:54.050 ,1,0,0.,12.0,0.,12.0,0.,12.0,0.,12.0
1980-11-13 15:59:06.050 ,0,0,0.,12.0,0.,12.0,0.,12.0,0.,12.0
1980-11-13 15:59:18.050 ,0,0,0.,12.0,0.,12.0,0.,12.0,0.,12.0
1980-11-13 15:59:30.050 ,0,0,0.,12.0,0.,12.0,0.,12.0,0.,12.0
1980-11-13 15:59:42.050 ,0,0,0.,12.0,0.,12.0,0.,12.0,0.,12.0
1980-11-13 15:59:54.050 ,0,0,0.,12.0,0.,12.0,0.,12.0,0.,12.0
1980-11-13 16:00:06.050 ,0,0,0.,12.0,0.,12.0,0.,12.0,0.,12.0
1980-11-13 16:00:18.060 ,0,0,0.,12.0,0.,12.0,0.,12.0,0.,12.0
1980-11-13 16:00:30.060 ,0,0,0.,12.0,0.,12.0,0.,12.0,0.,12.0
1980-11-13 16:00:42.060 ,1,0,0.,12.0,0.,12.0,0.,12.0,0.,12.0
1980-11-13 16:00:54.060 ,1,0,0.,12.0,0.,12.0,0.,12.0,0.,12.0
1980-11-13 16:01:06.060 ,1,0,0.,12.0,0.,12.0,0.,12.0,0.,12.0
1980-11-13 16:01:18.060 ,1,0,0.,12.0,0.,12.0,0.,12.0,0.,12.0
1980-11-13 16:01:30.060 ,2,0,0.,12.0,0.,12.0,0.,12.0,0.,12.0
1980-11-13 16:01:42.060 ,2,0,0.,12.0,0.,12.0,0.,12.0,0.,12.0
1980-11-13 16:01:54.060 ,2,0,0.,12.0,0.,12.0,0.,12.0,0.,12.0
1980-11-13 16:02:06.060 ,2,0,0.,12.0,0.,12.0,0.,12.0,0.,12.0
1980-11-13 16:02:18.050 ,3,0,0.,12.0,0.,12.0,0.,12.0,0.,12.0
1980-11-13 16:02:30.060 ,3,0,0.,12.0,0.,12.0,0.,12.0,0.,12.0
1980-11-13 16:02:42.050 ,3,0,0.,12.0,0.,12.0,0.,12.0,0.,12.0
1980-11-13 16:02:54.060 ,3,0,0.,12.0,0.,12.0,0.,12.0,0.,12.0
1980-11-13 16:03:06.050 ,4,0,0.,12.0,0.,12.0,0.,12.0,0.,12.0
1980-11-13 16:03:18.050 ,4,0,0.,12.0,0.,12.0,0.,12.0,0.,12.0
1980-11-13 16:03:30.050 ,4,0,0.,12.0,0.,12.0,0.,12.0,0.,12.0
1980-11-13 16:03:42.060 ,4,0,0.,12.0,0.,12.0,0.,12.0,0.,12.0
1980-11-13 16:03:54.050 ,5,0,0.,12.0,0.,12.0,0.,12.0,0.,12.0
1980-11-13 16:04:06.050 ,5,0,0.,12.0,0.,12.0,0.,12.0,0.,12.0
1980-11-13 16:04:18.050 ,5,0,0.,12.0,0.,12.0,0.,12.0,0.,12.0
1980-11-13 16:04:30.050 ,5,0,0.,12.0,0.,12.0,0.,12.0,0.,12.0
1980-11-13 16:04:42.050 ,6,0,0.,12.0,0.,12.0,0.,12.0,0.,12.0
1980-11-13 16:04:54.050 ,6,0,0.,12.0,0.,12.0,0.,12.0,0.,12.0
1980-11-13 16:05:06.050 ,6,0,0.,12.0,0.,12.0,0.,12.0,0.,12.0
1980-11-13 16:05:18.050 ,6,0,0.,12.0,0.,12.0,0.,12.0,0.,12.0
1980-11-13 16:05:30.050 ,7,0,0.,12.0,0.,12.0,0.,12.0,0.,12.0
1980-11-13 16:05:42.050 ,7,0,0.,12.0,0.,12.0,0.,12.0,0.,12.0
1980-11-13 16:05:54.050 ,7,0,0.,12.0,0.,12.0,0.,12.0,0.,12.0
1980-11-13 16:06:06.050 ,7,0,0.,12.0,0.,12.0,0.,12.0,0.,12.0
1980-11-13 16:06:18.050 ,7,0,0.,12.0,0.,12.0,0.,12.0,0.,12.0
1980-11-13 16:06:30.050 ,7,0,0.,12.0,0.,12.0,0.,12.0,0.,12.0
1980-11-13 16:06:42.050 ,7,0,0.,12.0,0.,12.0,0.,12.0,0.,12.0
1980-11-13 16:06:54.050 ,7,0,0.,12.0,0.,12.0,0.,12.0,0.,12.0
1980-11-13 16:07:06.050 ,6,0,0.,12.0,0.,12.0,0.,12.0,0.,12.0
1980-11-13 16:07:18.050 ,6,0,0.,12.0,0.,12.0,0.,12.0,0.,12.0
1980-11-13 16:07:30.050 ,6,0,0.,12.0,0.,12.0,0.,12.0,0.,12.0
1980-11-13 16:07:42.050 ,6,0,0.,12.0,0.,12.0,0.,12.0,0.,12.0
1980-11-13 16:07:54.050 ,5,0,0.,12.0,0.,12.0,0.,12.0,0.,12.0
1980-11-13 16:08:06.050 ,5,0,0.,12.0,0.,12.0,0.,12.0,0.,12.0
1980-11-13 16:08:18.050 ,5,0,0.,12.0,0.,12.0,0.,12.0,0.,12.0
1980-11-13 16:08:30.050 ,5,0,0.,12.0,1.,12.0,0.,12.0,0.,12.0
1980-11-13 16:08:42.050 ,4,0,0.,12.0,0.,12.0,0.,12.0,0.,12.0
1980-11-13 16:08:54.050 ,4,0,0.,12.0,0.,12.0,0.,12.0,0.,12.0
1980-11-13 16:09:06.050 ,4,0,0.,12.0,0.,12.0,0.,12.0,0.,12.0
1980-11-13 16:09:18.050 ,4,0,0.,12.0,0.,12.0,0.,12.0,0.,12.0
1980-11-13 16:09:30.050 ,3,0,0.,12.0,0.,12.0,0.,12.0,0.,12.0
1980-11-13 16:09:42.050 ,3,0,0.,12.0,0.,12.0,0.,12.0,0.,12.0
1980-11-13 16:09:54.050 ,3,0,0.,12.0,0.,12.0,0.,12.0,0.,12.0
1980-11-13 16:10:06.050 ,3,0,0.,12.0,0.,12.0,0.,12.0,0.,12.0
1980-11-13 16:10:18.050 ,2,0,0.,12.0,0.,12.0,0.,12.0,0.,12.0
1980-11-13 16:10:30.050 ,2,0,0.,12.0,0.,12.0,0.,12.0,0.,12.0
1980-11-13 16:10:42.050 ,2,0,0.,12.0,0.,12.0,0.,12.0,0.,12.0
1980-11-13 16:10:54.050 ,2,0,0.,12.0,0.,12.0,0.,12.0,0.,12.0
1980-11-13 16:11:06.050 ,1,0,0.,12.0,0.,12.0,0.,12.0,0.,12.0
1980-11-13 16:11:18.050 ,1,0,0.,12.0,0.,12.0,0.,12.0,0.,12.0
1980-11-13 16:11:30.050 ,1,0,0.,12.0,0.,12.0,0.,12.0,0.,12.0
1980-11-13 16:11:42.050 ,1,0,0.,12.0,0.,12.0,0.,12.0,0.,12.0
1980-11-13 16:11:54.050 ,0,0,0.,12.0,0.,12.0,0.,12.0,0.,12.0
1980-11-13 16:12:06.050 ,0,0,0.,12.0,0.,12.0,0.,12.0,0.,12.0
1980-11-13 16:12:18.050 ,0,0,0.,12.0,0.,12.0,0.,12.0,0.,12.0
1980-11-13 16:12:30.050 ,0,0,0.,12.0,0.,12.0,0.,12.0,0.,12.0
1980-11-13 16:12:42.050 ,0,0,0.,12.0,0.,12.0,0.,12.0,0.,12.0
1980-11-13 16:12:54.050 ,0,0,0.,12.0,0.,12.0,0.,12.0,0.,12.0
1980-11-13 16:13:06.050 ,0,0,0.,12.0,0.,12.0,0.,12.0,0.,12.0
1980-11-13 16:13:18.050 ,0,0,0.,12.0,0.,12.0,0.,12.0,0.,12.0
1980-11-13 16:13:30.050 ,1,0,0.,12.0,0.,12.0,0.,12.0,0.,12.0
1980-11-13 16:13:42.050 ,1,0,0.,12.0,0.,12.0,0.,12.0,0.,12.0
1980-11-13 16:13:54.050 ,1,0,0.,12.0,0.,12.0,0.,12.0,0.,12.0
1980-11-13 16:14:06.050 ,1,0,0.,12.0,0.,12.0,0.,12.0,0.,12.0
1980-11-13 16:14:18.050 ,2,0,0.,12.0,0.,12.0,0.,12.0,0.,12.0
1980-11-13 16:14:30.050 ,2,0,0.,12.0,0.,12.0,0.,12.0,0.,12.0
1980-11-13 16:14:42.050 ,2,0,0.,12.0,0.,12.0,0.,12.0,0.,12.0
1980-11-13 16:14:54.050 ,2,0,0.,12.0,0.,12.0,0.,12.0,0.,12.0
1980-11-13 16:15:06.050 ,3,0,0.,12.0,0.,12.0,0.,12.0,0.,12.0
1980-11-13 16:15:18.050 ,3,0,0.,12.0,0.,12.0,0.,12.0,0.,12.0
1980-11-13 16:15:30.050 ,3,0,0.,12.0,0.,12.0,0.,12.0,0.,12.0
1980-11-13 16:15:42.050 ,3,0,0.,12.0,0.,12.0,0.,12.0,0.,12.0
1980-11-13 16:15:54.050 ,4,0,0.,12.0,0.,12.0,0.,12.0,0.,12.0
1980-11-13 16:16:06.050 ,4,0,0.,12.0,0.,12.0,0.,12.0,0.,12.0
1980-11-13 16:16:18.050 ,4,0,0.,12.0,0.,12.0,0.,12.0,0.,12.0
1980-11-13 16:16:30.050 ,4,0,0.,12.0,0.,12.0,0.,12.0,0.,12.0
1980-11-13 16:16:42.050 ,5,0,0.,12.0,1.,12.0,0.,12.0,0.,12.0
1980-11-13 16:16:54.050 ,5,0,0.,12.0,0.,12.0,0.,12.0,0.,12.0
1980-11-13 16:17:06.060 ,5,0,0.,12.0,0.,12.0,0.,12.0,0.,12.0
1980-11-13 16:17:18.060 ,5,0,0.,12.0,0.,12.0,0.,12.0,0.,12.0
1980-11-13 16:17:30.060 ,6,0,0.,12.0,0.,12.0,0.,12.0,0.,12.0
1980-11-13 16:17:42.060 ,6,0,0.,12.0,0.,12.0,0.,12.0,0.,12.0
1980-11-13 16:17:54.060 ,6,0,0.,12.0,0.,12.0,0.,12.0,0.,12.0